Home > Products > Valid Products > RWR

000
ASUS43 KJKL 292010
RWRJKL

EAST KENTUCKY HOURLY WEATHER ROUNDUP
NATIONAL WEATHER SERVICE JACKSON KY
400 PM EDT SUN MAY 29 2016

NOTE: "FAIR" INDICATES FEW OR NO CLOUDS BELOW 12,000 FEET WITH
NO SIGNIFICANT WEATHER AND/OR OBSTRUCTIONS TO VISIBILITY.

* THESE REPORTS ARE NOT UNDER NWS QUALITY CONTROL AND MAY NOT
  REPORT WEATHER SUCH AS PRECIPITATION AND FOG.

KYZ079-080-083-085-087-088-110-112-115-119-120-292100
...EASTERN KENTUCKY...

CITY           SKY/WX    TMP DP  RH WIND       PRES   REMARKS
JACKSON        CLOUDY    79  65  62 CALM      30.12F
LONDON         SUNNY     82  62  50 CALM      30.10F
SOMERSET*      SUNNY     81  61  50 W3        30.10F
MONTICELLO*    SUNNY     84  65  52 NW9       30.11F
WILLIAMSBURG*  PTCLDY    81  63  54 CALM      30.10F
MIDDLESBORO*   PTSUNNY   83  65  53 CALM      30.10F
HARLAN APT*    MOCLDY    70  63  78 CALM      30.15F
HAZARD APT*    CLEAR     81  63  54 CALM      30.12F
BLACK MTN*       N/A     64  63  94 VRB2        N/A
PIKE CO APT*   DRIZZLE   69  65  89 SW5       30.13F
BIG SANDY APT* CLOUDY    73  67  81 CALM      30.11F
MOREHEAD APT*  CLOUDY    82  59  44 SW6G12    30.11F
ASHLAND*       CLOUDY    82  70  65 W3        30.06F
$$

KYZ035-036-041-042-044-050-067-078-099-292100
...CENTRAL KENTUCKY...

CITY           SKY/WX    TMP DP  RH WIND       PRES   REMARKS
MT STERLING*   PTSUNNY   82  66  57 S6        30.10F
FLEMING/MASON* SUNNY    N/A N/A N/A SE5       30.09F
DANVILLE*      MOSUNNY   86  63  45 W7        30.10F
RICHMOND*      SUNNY     84  63  48 W3        30.09F
LEXINGTON      MOSUNNY   84  64  50 S8        30.09F
FRANKFORT      MOSUNNY   84  63  49 SW10      30.06F
LOUISVILLE     MOSUNNY   87  65  47 VRB5      30.04F
LEBANON*         N/A     86  66  51 S6        30.08F
GLASGOW*       MOSUNNY   85  65  50 SW6       30.08F
BOWLING GREEN  MOSUNNY   87  67  51 S9        30.07F HX  90
$$

KYZ091>093-OHZ055-061-077-WVZ005-015-034-035-042-292100
...SOUTHERN OHIO/WEST VIRGINIA...

CITY           SKY/WX    TMP DP  RH WIND       PRES   REMARKS
COVINGTON      PTSUNNY   85  65  51 SW10      30.05F
COLUMBUS       PTSUNNY   82  60  47 S8        30.06F
DAYTON         CLOUDY    73  62  68 E12       30.05F THUNDER
WILMINGTON     SUNNY     83  64  52 S9        30.05F
HUNTINGTON       N/A     80  67  64 VRB3      30.09F
CHARLESTON     CLOUDY    80  64  58 S5        30.08F
PINEVILLE*       N/A     76  61  60 MISG      30.19F
BECKLEY        CLOUDY    72  59  63 E7        30.17F
BLUEFIELD      CLOUDY    70  57  63 CALM      30.20F
LOGAN CO APT*    N/A     77  63  61 CALM      30.12F
$$

VAZ002-007-008-TNZ017-027-036-066-071-292100
...SOUTHWEST VIRGINIA/EAST TENNESSEE...

CITY           SKY/WX    TMP DP  RH WIND       PRES   REMARKS
WISE*          CLOUDY    72  57  60 SW6       30.19F
JONESVILLE*      N/A     70  68  94 CALM      30.16F
ABINGDON*        N/A     77  53  43 SE8       30.16F
BRISTOL        CLOUDY    80  57  45 N6        30.12F
SEVIERVILLE*     N/A     81  64  57 VRB5      30.08F
KNOXVILLE      LGT RAIN  81  65  58 E6        30.07F
OAK RIDGE      SUNNY     85  64  49 E6        30.09F
CROSSVILLE     MOSUNNY   83  61  47 W8        30.14F
NASHVILLE      MOSUNNY   88  63  43 SW5       30.07F
$$

...KEY TO REMARKS...
VSB - VISIBILITY IN MILES
WCI - WIND CHILL INDEX
HX  - HEAT INDEX

$$






000
ASUS43 KJKL 291910
RWRJKL

EAST KENTUCKY HOURLY WEATHER ROUNDUP
NATIONAL WEATHER SERVICE JACKSON KY
300 PM EDT SUN MAY 29 2016

NOTE: "FAIR" INDICATES FEW OR NO CLOUDS BELOW 12,000 FEET WITH
NO SIGNIFICANT WEATHER AND/OR OBSTRUCTIONS TO VISIBILITY.

* THESE REPORTS ARE NOT UNDER NWS QUALITY CONTROL AND MAY NOT
  REPORT WEATHER SUCH AS PRECIPITATION AND FOG.

KYZ079-080-083-085-087-088-110-112-115-119-120-292000
...EASTERN KENTUCKY...

CITY           SKY/WX    TMP DP  RH WIND       PRES   REMARKS
JACKSON        CLOUDY    77  66  68 CALM      30.14F
LONDON         MOSUNNY   84  62  47 VRB7      30.12F
SOMERSET*      MOSUNNY   81  61  50 W5        30.12F
MONTICELLO*    MOSUNNY   85  66  53 W9G16     30.13F
WILLIAMSBURG*  PTCLDY    81  63  54 NW5       30.12F
MIDDLESBORO*   MOSUNNY   84  67  58 E6        30.12F
HARLAN APT*    CLOUDY    72  64  78 NE3       30.16S
HAZARD APT*    CLEAR     79  63  57 CALM      30.14F
BLACK MTN*       N/A     63  63 100 CALM        N/A
PIKE CO APT*   TSTM      70  60  71 N3        30.14F
BIG SANDY APT* DRIZZLE   68  65  90 CALM      30.14F
MOREHEAD APT*  CLOUDY    81  64  57 S6        30.14S
ASHLAND*       CLOUDY    77  68  73 NW3       30.08F
$$

KYZ035-036-041-042-044-050-067-078-099-292000
...CENTRAL KENTUCKY...

CITY           SKY/WX    TMP DP  RH WIND       PRES   REMARKS
MT STERLING*   MOSUNNY   82  66  57 S5        30.13F
FLEMING/MASON* SUNNY    N/A N/A N/A SW6       30.12F
DANVILLE*      MOSUNNY   84  63  48 NW5       30.11F
RICHMOND*      MOSUNNY   82  64  54 SW6       30.10F
LEXINGTON      MOSUNNY   83  65  54 W8        30.10F
FRANKFORT      SUNNY     86  64  47 SW10      30.07F
LOUISVILLE     MOSUNNY   88  66  48 SW10      30.06F HX  90
LEBANON*         N/A     84  64  51 S3        30.10F
GLASGOW*       MOSUNNY   85  64  49 SW6       30.10F
BOWLING GREEN  PTSUNNY   86  67  52 SW10      30.09F
$$

KYZ091>093-OHZ055-061-077-WVZ005-015-034-035-042-292000
...SOUTHERN OHIO/WEST VIRGINIA...

CITY           SKY/WX    TMP DP  RH WIND       PRES   REMARKS
COVINGTON      MOSUNNY   85  67  54 S8G16     30.07F
COLUMBUS       CLOUDY    80  65  59 S7        30.08F
DAYTON         PTSUNNY   82  66  58 S8        30.07F
WILMINGTON     MOSUNNY   83  65  54 S10       30.08F
HUNTINGTON       N/A     80  65  59 S3        30.10F
CHARLESTON     CLOUDY    81  63  54 CALM      30.12F
PINEVILLE*     CLOUDY    75  59  56 MISG      30.21F
BECKLEY        CLOUDY    73  57  57 NW7       30.19F
BLUEFIELD      CLOUDY    70  55  59 N5        30.22F
LOGAN CO APT*  MOCLDY    77  63  61 CALM      30.15S
$$

VAZ002-007-008-TNZ017-027-036-066-071-292000
...SOUTHWEST VIRGINIA/EAST TENNESSEE...

CITY           SKY/WX    TMP DP  RH WIND       PRES   REMARKS
WISE*            N/A     73  57  56 SW3       30.21F
JONESVILLE*    LGT RAIN  68  66  94 CALM      30.18R
ABINGDON*        N/A     78  57  47 SE6       30.17S
BRISTOL        CLOUDY    81  57  43 CALM      30.14F
SEVIERVILLE*   CLEAR     82  64  54 NE7       30.10F
KNOXVILLE      CLOUDY    82  64  54 E10       30.09F
OAK RIDGE      MOSUNNY   84  63  49 VRB3      30.11F
CROSSVILLE     PTSUNNY   80  60  50 NE5       30.16F
NASHVILLE      PTSUNNY   90  64  42 SW8       30.09F HX  91
$$

...KEY TO REMARKS...
VSB - VISIBILITY IN MILES
WCI - WIND CHILL INDEX
HX  - HEAT INDEX

$$






000
ASUS43 KJKL 291710
RWRJKL

EAST KENTUCKY HOURLY WEATHER ROUNDUP
NATIONAL WEATHER SERVICE JACKSON KY
100 PM EDT SUN MAY 29 2016

NOTE: "FAIR" INDICATES FEW OR NO CLOUDS BELOW 12,000 FEET WITH
NO SIGNIFICANT WEATHER AND/OR OBSTRUCTIONS TO VISIBILITY.

* THESE REPORTS ARE NOT UNDER NWS QUALITY CONTROL AND MAY NOT
  REPORT WEATHER SUCH AS PRECIPITATION AND FOG.

KYZ079-080-083-085-087-088-110-112-115-119-120-291800
...EASTERN KENTUCKY...

CITY           SKY/WX    TMP DP  RH WIND       PRES   REMARKS
JACKSON        RAIN      70  65  84 CALM      30.16F
LONDON         SUNNY     80  61  52 VRB3      30.15F
SOMERSET*      MOSUNNY   79  63  57 NW6       30.15F
MONTICELLO*    SUNNY     81  65  58 N10       30.17S
WILLIAMSBURG*  SUNNY     79  63  57 N5        30.16S
MIDDLESBORO*   CLOUDY    74  71  90 SE3       30.16F
HARLAN APT*    CLOUDY    68  61  77 NW3G18    30.16S
HAZARD APT*    MOSUNNY   75  63  64 NW6       30.16S
BLACK MTN*       N/A     61  61 100 SW7         N/A
PIKE CO APT*     N/A     77  68  73 SE3       30.16F
BIG SANDY APT* CLOUDY    80  70  70 SE3       30.14F
MOREHEAD APT*  CLOUDY    79  64  61 CALM      30.16F
ASHLAND*       CLOUDY    73  66  78 CALM      30.11F
$$

KYZ035-036-041-042-044-050-067-078-099-291800
...CENTRAL KENTUCKY...

CITY           SKY/WX    TMP DP  RH WIND       PRES   REMARKS
MT STERLING*   CLOUDY    77  68  73 CALM      30.15F
FLEMING/MASON* MOSUNNY  N/A N/A N/A SW5       30.15S
DANVILLE*      MOSUNNY   79  63  57 CALM      30.15F
RICHMOND*      SUNNY     81  66  61 CALM      30.13F
LEXINGTON      MOSUNNY   81  66  60 SW6       30.13F
FRANKFORT      MOSUNNY   83  64  52 W5        30.10F
LOUISVILLE     PTSUNNY   84  66  54 SW10      30.09F
LEBANON*         N/A     82  66  57 S6        30.13S
GLASGOW*       SUNNY     83  66  57 NW3       30.13F
BOWLING GREEN  MOSUNNY   82  67  60 VRB3      30.12F
$$

KYZ091>093-OHZ055-061-077-WVZ005-015-034-035-042-291800
...SOUTHERN OHIO/WEST VIRGINIA...

CITY           SKY/WX    TMP DP  RH WIND       PRES   REMARKS
COVINGTON      CLOUDY    83  67  58 SW7       30.10F
COLUMBUS       CLOUDY    78  66  66 SW7       30.11S
DAYTON         PTSUNNY   80  66  62 SW10      30.10F
WILMINGTON     CLOUDY    80  67  64 SW9       30.11F
HUNTINGTON       N/A     77  66  68 N7        30.13S
CHARLESTON     CLOUDY    79  62  56 CALM      30.13S
PINEVILLE*     CLOUDY    74  59  58 MISG      30.23S
BECKLEY        CLOUDY    71  58  63 E5        30.21R
BLUEFIELD      CLOUDY    69  55  60 CALM      30.23R
LOGAN CO APT*  PTSUNNY   75  63  64 CALM      30.16S
$$

VAZ002-007-008-TNZ017-027-036-066-071-291800
...SOUTHWEST VIRGINIA/EAST TENNESSEE...

CITY           SKY/WX    TMP DP  RH WIND       PRES   REMARKS
WISE*            N/A     75  52  43 SE3       30.23F
JONESVILLE*      N/A     81  61  50 CALM      30.17F
ABINGDON*        N/A     78  53  42 CALM      30.19S
BRISTOL        CLOUDY    75  61  61 CALM      30.16F
SEVIERVILLE*   MOSUNNY   81  63  54 NE6       30.13F
KNOXVILLE      CLOUDY    82  65  56 VRB3      30.13F
OAK RIDGE      SUNNY     83  63  50 CALM      30.14F
CROSSVILLE     SUNNY     79  59  50 VRB6      30.19F
NASHVILLE      PTSUNNY   86  65  49 VRB5      30.13F
$$

...KEY TO REMARKS...
VSB - VISIBILITY IN MILES
WCI - WIND CHILL INDEX
HX  - HEAT INDEX

$$






000
ASUS43 KJKL 291010
RWRJKL

EAST KENTUCKY HOURLY WEATHER ROUNDUP
NATIONAL WEATHER SERVICE JACKSON KY
600 AM EDT SUN MAY 29 2016

NOTE: "FAIR" INDICATES FEW OR NO CLOUDS BELOW 12,000 FEET WITH
NO SIGNIFICANT WEATHER AND/OR OBSTRUCTIONS TO VISIBILITY.

* THESE REPORTS ARE NOT UNDER NWS QUALITY CONTROL AND MAY NOT
  REPORT WEATHER SUCH AS PRECIPITATION AND FOG.

KYZ079-080-083-085-087-088-110-112-115-119-120-291100
...EASTERN KENTUCKY...

CITY           SKY/WX    TMP DP  RH WIND       PRES   REMARKS
JACKSON        PTCLDY    68  61  78 CALM      30.15R
LONDON         CLOUDY    65  62  90 CALM      30.14R
SOMERSET*      PTCLDY    63  63 100 CALM      30.14S
MONTICELLO*    CLOUDY    64  63  96 VRB7      30.14S
WILLIAMSBURG*  CLOUDY    61  61 100 CALM      30.15R
MIDDLESBORO*   CLOUDY    63  63  99 CALM      30.16R
HARLAN APT*    CLOUDY   N/A N/A N/A CALM      30.16S
HAZARD APT*    SUNNY     66  66 100 CALM      30.15R FOG
BLACK MTN*       N/A     64  55  72 S2          N/A
PIKE CO APT*     N/A     65  65 100 CALM      30.14S FOG
BIG SANDY APT*   N/A     66  66 100 CALM      30.14R FOG
MOREHEAD APT*  CLOUDY    68  64  88 CALM      30.14S
ASHLAND*       CLOUDY    64  63  94 CALM      30.09S
$$

KYZ035-036-041-042-044-050-067-078-099-291100
...CENTRAL KENTUCKY...

CITY           SKY/WX    TMP DP  RH WIND       PRES   REMARKS
MT STERLING*   CLOUDY    64  64 100 CALM      30.14S
FLEMING/MASON* PTCLDY   N/A N/A N/A S3        30.13S
DANVILLE*      CLOUDY    64  63  94 CALM      30.13S
RICHMOND*      CLOUDY    66  63  88 SE3       30.12S
LEXINGTON      MOCLDY    69  62  78 SE3       30.12R
FRANKFORT      CLOUDY    67  62  84 CALM      30.09S
LOUISVILLE     CLOUDY    67  64  90 SE3       30.08R
LEBANON*         N/A     68  63  83 S6        30.11S
GLASGOW*       CLEAR     64  64 100 CALM      30.10S
BOWLING GREEN  MOCLDY    63  62  97 E3        30.09R FOG
$$

KYZ091>093-OHZ055-061-077-WVZ005-015-034-035-042-291100
...SOUTHERN OHIO/WEST VIRGINIA...

CITY           SKY/WX    TMP DP  RH WIND       PRES   REMARKS
COVINGTON      CLOUDY    68  63  84 S5        30.10R
COLUMBUS       CLOUDY    67  65  93 CALM      30.10R
DAYTON         CLOUDY    69  62  78 SW7       30.11R
WILMINGTON     CLOUDY    66  62  87 S3        30.11R
HUNTINGTON       N/A     67  65  93 CALM      30.11S FOG
CHARLESTON     MOCLDY    64  62  93 CALM      30.12R
PINEVILLE*       N/A     61  58  88 MISG      30.22S
BECKLEY          N/A     64  56  75 CALM      30.20R
BLUEFIELD      MOCLDY    62  54  74 CALM      30.21S
LOGAN CO APT*    N/A     68  59  73 CALM      30.14F
$$

VAZ002-007-008-TNZ017-027-036-066-071-291100
...SOUTHWEST VIRGINIA/EAST TENNESSEE...

CITY           SKY/WX    TMP DP  RH WIND       PRES   REMARKS
WISE*            N/A     63  52  67 CALM      30.21S
JONESVILLE*      N/A     63  63 100 CALM      30.17R
ABINGDON*      CLOUDY    66  58  76 E8        30.18R
BRISTOL        CLOUDY    65  59  81 CALM      30.15S
SEVIERVILLE*   CLOUDY    64  61  88 CALM      30.12S
KNOXVILLE      CLOUDY    71  63  75 CALM      30.12R
OAK RIDGE      CLOUDY    68  64  87 CALM      30.14R
CROSSVILLE     PTCLDY    63  59  87 CALM      30.16S
NASHVILLE      PTCLDY    65  62  90 CALM      30.10R
$$

...KEY TO REMARKS...
VSB - VISIBILITY IN MILES
WCI - WIND CHILL INDEX
HX  - HEAT INDEX

$$






000
ASUS43 KJKL 290510
RWRJKL

EAST KENTUCKY HOURLY WEATHER ROUNDUP
NATIONAL WEATHER SERVICE JACKSON KY
100 AM EDT SUN MAY 29 2016

NOTE: "FAIR" INDICATES FEW OR NO CLOUDS BELOW 12,000 FEET WITH
NO SIGNIFICANT WEATHER AND/OR OBSTRUCTIONS TO VISIBILITY.

* THESE REPORTS ARE NOT UNDER NWS QUALITY CONTROL AND MAY NOT
  REPORT WEATHER SUCH AS PRECIPITATION AND FOG.

KYZ079-080-083-085-087-088-110-112-115-119-120-290600
...EASTERN KENTUCKY...

CITY           SKY/WX    TMP DP  RH WIND       PRES   REMARKS
JACKSON        PTCLDY    72  63  73 CALM      30.13S
LONDON         MOCLDY    70  63  78 NW3       30.14R
SOMERSET*      PTCLDY    64  64 100 CALM      30.15R
MONTICELLO*    PTCLDY    66  65  96 MISG      30.15R
WILLIAMSBURG*  MOCLDY    61  61 100 W3        30.15R
MIDDLESBORO*   PTCLDY    65  64  96 CALM      30.15R
HARLAN APT*      N/A     64  61  88 N3        30.16S
HAZARD APT*    CLEAR     66  66 100 CALM      30.14R FOG
BLACK MTN*       N/A     63  55  77 S3          N/A
PIKE CO APT*     N/A     71  66  84 SE5       30.14S
BIG SANDY APT* CLEAR     67  67  98 CALM      30.13S
MOREHEAD APT*  PTCLDY    72  63  73 CALM      30.14S
ASHLAND*       PTCLDY    66  64  94 CALM      30.08S
$$

KYZ035-036-041-042-044-050-067-078-099-290600
...CENTRAL KENTUCKY...

CITY           SKY/WX    TMP DP  RH WIND       PRES   REMARKS
MT STERLING*   CLOUDY    68  64  88 CALM      30.14S
FLEMING/MASON* MOCLDY    71  62  73 CALM      30.13R
DANVILLE*      PTCLDY    64  64 100 CALM      30.14R
RICHMOND*      PTCLDY    70  64  83 S3        30.13R
LEXINGTON      PTCLDY    67  61  81 SE5       30.12R
FRANKFORT      MOCLDY    67  62  84 CALM      30.10R
LOUISVILLE     MOCLDY    72  64  76 SE5       30.08R
LEBANON*         N/A     68  63  83 S7        30.12R
GLASGOW*       CLOUDY    68  64  87 CALM      30.11R
BOWLING GREEN  CLOUDY    69  66  90 CALM      30.10R
$$

KYZ091>093-OHZ055-061-077-WVZ005-015-034-035-042-290600
...SOUTHERN OHIO/WEST VIRGINIA...

CITY           SKY/WX    TMP DP  RH WIND       PRES   REMARKS
COVINGTON      MOCLDY    67  62  84 S6        30.09S
COLUMBUS       MOCLDY    68  66  93 CALM      30.09R
DAYTON         CLOUDY    72  63  73 S8        30.10R
WILMINGTON     PTCLDY    68  63  84 CALM      30.11R
HUNTINGTON       N/A     67  65  93 E3        30.10R
CHARLESTON       N/A     67  65  93 CALM      30.12S
PINEVILLE*       N/A     62  57  83 MISG      30.22R
BECKLEY          N/A     64  55  72 CALM      30.21S
BLUEFIELD        N/A     66  53  63 S6        30.23S
LOGAN CO APT*    N/A     72  61  68 CALM      30.14F
$$

VAZ002-007-008-TNZ017-027-036-066-071-290600
...SOUTHWEST VIRGINIA/EAST TENNESSEE...

CITY           SKY/WX    TMP DP  RH WIND       PRES   REMARKS
WISE*            N/A     68  52  56 SW3       30.22S
JONESVILLE*      N/A     66  63  88 CALM      30.17S
ABINGDON*        N/A     68  58  68 E3        30.19R
BRISTOL        CLOUDY    67  60  78 CALM      30.15S
SEVIERVILLE*   CLEAR     66  63  88 CALM      30.12R
OAK RIDGE      CLOUDY    71  65  81 VRB3      30.14R
CROSSVILLE     MOCLDY    65  61  87 CALM      30.18R
NASHVILLE      CLOUDY    69  62  78 S3        30.10R
$$

...KEY TO REMARKS...
VSB - VISIBILITY IN MILES
WCI - WIND CHILL INDEX
HX  - HEAT INDEX

$$






    US Dept of Commerce
    National Oceanic and Atmospheric Administration
    National Weather Service
    1325 East West Highway
    Silver Spring, MD 20910
    Page Author: NWS Internet Services Team
Disclaimer
Information Quality
Credits
Glossary
Privacy Policy
Freedom of Information Act (FOIA)
About Us
Career Opportunities